Location: *
(46.3500°N, 10.9000°E)
Time: 22:45:03
(UTC+00:00)

Explorer 7 - Pass Details

Date: 24 April 2021
Orbit: 484 x 677 km, 50.3° (Epoch: 13 May)

Event Time Altitude Azimuth Distance (km) Brightness Sun altitude
Rises 20:52:30 0° 284° (WNW) 2,684 11.1 -22.5°
Reaches altitude 10° 20:54:43 10° 290° (WNW) 1,823 10.2 -22.7°
Maximum altitude 20:58:47 51° 7° (N) 727 7.6 -23.1°
Enters shadow 20:59:59 38° 56° (NE) 889 7.8 -23.3°
Drops below altitude 10° 21:03:07 10° 84° (E) 1,943 - -23.6°
Sets 21:05:32 0° 89° (E) 2,880 - -23.8°
